Location: *
(49.6506°S, 175.7492°W)
Time: 19:08:19
(UTC+00:00)

Daily predictions for brighter satellites

Satellite Brightness Start Highest point End
(mag) Time Altitude Azimuth Time Altitude Azimuth Time Altitude Azimuth
USA 234 4.1 14:06:08 10° ESE 14:10:50 44° SSE 14:10:50 44° SSE
H-2A R/B 4.1 14:15:19 24° SSE 14:15:19 24° SSE 14:17:58 10° S
Cosmos 2263 Rocket 3.8 14:34:57 29° SSE 14:34:57 29° SSE 14:37:40 10° SSE
Cosmos 2266 Rocket 4.4 14:47:22 10° S 14:53:04 63° SE 14:53:04 63° SE
CZ-2C R/B 3.5 14:49:50 10° SSE 14:53:59 49° SE 14:53:59 49° SE
ARIANE 5 R/B 3.6 14:58:11 10° NE 15:03:01 42° ESE 15:07:51 10° S
CZ-4C R/B 2.8 15:11:02 77° NNW 15:11:43 88° NE 15:18:43 10° SE
Cosmos 2227 Rocket 4.1 15:13:35 19° SSW 15:13:35 19° SSW 15:16:20 10° S
Cosmos 1844 Rocket 2.9 15:19:02 65° ENE 15:19:02 65° ENE 15:24:36 10° SSE
Cosmos 1125 Rocket 4.2 15:27:09 45° S 15:27:09 45° S 15:31:02 10° SSE
ATLAS CENTAUR R/B 2.6 15:31:16 41° SSE 15:31:16 41° SSE 15:34:11 10° SE
COSMOS 2455 4.0 15:33:57 29° SSW 15:33:57 29° SSW 15:38:49 10° SSE
CENTAUR R/B 2.9 15:31:26 49° NNW 15:33:46 76° NE 15:40:30 10° SE
SL-06 R/B (2) 4.4 15:33:27 56° SSW 15:34:31 82° SE 15:42:53 10° NE
SeaSat 1 2.9 15:30:39 10° NE 15:35:32 61° SE 15:38:38 22° SSW
Cosmos 2227 4.4 15:36:36 58° SSW 15:36:36 58° SSW 15:41:49 10° SSE
BREEZE-M DEB (TANK) 4.4 15:36:24 39° W 15:40:30 69° NNW 15:44:52 10° NE
SL-16 R/B 2.5 15:34:41 10° SSE 15:40:59 85° ENE 15:43:14 43° NNW
CZ-2D R/B 4.4 15:37:36 10° NE 15:41:49 50° ESE 15:46:06 10° S
BREEZE-M DEB (TANK) 3.9 15:43:21 39° ENE 15:43:21 39° ENE 15:47:03 10° ENE
Cosmos 2297 Rocket 4.4 15:42:02 12° SSW 15:42:23 12° SSW 15:44:28 10° S
IRS-1C 4.0 15:37:05 10° NNE 15:42:28 88° WNW 15:47:55 10° SSW
Meteor 1-11 Rocket 3.8 15:41:39 42° N 15:43:40 77° E 15:49:29 10° SSE
DEBRIS 3.6 15:44:47 48° E 15:44:47 48° E 15:49:01 10° E
SL-19 R/B 4.3 15:40:22 10° NNE 15:45:40 76° ESE 15:51:16 10° SSW
Cosmos 2150 Rocket 4.0 15:51:07 64° WSW 15:51:07 64° WSW 15:56:35 10° SSE
Cosmos 2298 Rocket 4.1 15:51:46 62° SW 15:51:46 62° SW 15:57:00 10° SSE
H-2A R/B 3.8 15:55:54 20° SSW 15:55:54 20° SSW 15:57:38 10° SSW
USA 234 3.9 15:48:43 10° ESE 15:55:01 48° S 15:58:09 28° SW
SJ-12 4.4 15:51:22 10° NNE 15:55:19 58° ESE 15:59:20 10° S
Cosmos 1833 Rocket 3.6 15:51:28 10° SSW 15:57:00 47° SE 16:02:28 10° NE
SL-08 RB Rocket 3.9 15:52:42 10° NNE 15:57:15 72° ESE 16:01:49 10° S
Meteor 2-9 Rocket 4.4 15:56:11 17° N 16:00:44 80° E 16:06:43 10° SSE
BREEZE-M R/B 4.2 16:06:26 31° NE 16:06:26 31° NE 16:08:13 10° ENE
IRS-P3 4.0 16:01:10 10° N 16:06:33 72° WNW 16:11:59 10° SSW
Cosmos 2082 Rocket 4.3 16:06:07 10° SSW 16:10:44 25° SE 16:15:20 10° E
FengYun 1-2 T 4.1 16:06:58 10° N 16:12:26 63° WNW 16:17:59 10° SSW
Cosmos 2263 Rocket 3.8 16:16:39 19° SW 16:16:58 19° SW 16:20:56 10° S
Cosmos 1400 Rocket 3.6 16:13:17 10° S 16:17:06 50° ESE 16:20:50 10° NNE
Cosmos 1805 Rocket 3.6 16:17:14 55° WSW 16:17:14 55° WSW 16:21:36 10° S
Cosmos 2228 Rocket 3.1 16:13:12 10° S 16:17:54 88° W 16:22:30 10° N
Cosmos 1500 Rocket 4.1 16:18:49 40° SW 16:18:49 40° SW 16:22:19 10° S
Cosmos 1975 3.5 16:15:19 10° N 16:19:13 55° E 16:23:12 10° SSE
Cosmos 1707 Rocket 3.6 16:15:38 10° S 16:20:10 84° E 16:24:36 10° N
BREEZE M DEB (TANK) 3.3 16:19:35 28° N 16:20:30 33° NE 16:25:38 10° ESE
Cosmos 1666 Rocket 4.0 16:16:28 10° N 16:20:48 61° E 16:25:10 10° SSE
In-Cosmos 22 4.2 16:18:00 10° SSW 16:23:11 48° W 16:28:17 10° NNW
BREEZE-M DEB (TANK) 2.6 16:28:07 80° NW 16:28:12 83° N 16:30:37 10° ENE
SL-8 R/B 4.4 16:28:41 34° NW 16:29:14 35° NNW 16:33:36 10° NE
SJ-6F 4.3 16:26:21 10° N 16:30:26 77° WNW 16:34:36 10° SSW
CZ-2D R/B 3.2 16:27:18 10° NNE 16:31:01 80° ESE 16:34:48 10° S
SL-14 R/B 3.1 16:28:10 10° SSW 16:32:07 84° WNW 16:36:00 10° N
Cosmos 1340 3.6 16:30:57 10° N 16:34:18 45° E 16:37:43 10° SSE
CZ-2C R/B 3.9 16:30:51 10° S 16:35:14 24° WSW 16:35:28 24° WSW
Meteor 1-23 Rocket 4.3 16:29:34 10° SSW 16:35:18 55° W 16:40:58 10° N
Cosmos 1844 4.1 16:34:40 31° WNW 16:36:55 46° SW 16:42:27 10° SSE
ARGOS 3.5 16:33:56 10° NNW 16:38:58 40° W 16:44:06 10° SSW
Timation 2 Rocket 3.9 16:35:57 23° NW 16:39:42 63° SW 16:45:46 10° SSE
Meteor 2-10 4.2 16:34:09 10° NNW 16:39:45 60° WSW 16:45:15 10° S
Meteor 1-21 4.2 16:35:54 10° SSW 16:41:48 75° W 16:47:33 10° N
NOSS 3-3 (A) 3.9 16:36:45 15° SW 16:42:04 53° WNW 16:47:28 10° NNE
ARIANE 5 R/B 3.2 16:37:36 10° NNW 16:42:11 32° W 16:46:46 10° SSW
NOSS 3-2 (A) 4.1 16:36:28 20° NW 16:43:03 72° SW 16:50:34 10° SE
SJ-11-01 4.3 16:38:26 10° N 16:43:10 61° W 16:47:56 10° SSW
Sich 1 3.8 16:45:40 30° W 16:45:59 30° WSW 16:49:57 10° S
NOSS 3-3 (C) 4.0 16:43:06 13° SW 16:48:42 50° WNW 16:54:02 10° NNE
Okean 3 3.4 16:46:12 10° SSW 16:50:31 80° W 16:54:46 10° N
Cosmos 1743 Rocket 4.5 16:51:27 27° W 16:52:00 28° WSW 16:55:52 10° S
Spot 4 Rocket 4.0 16:47:54 10° N 16:53:00 59° WNW 16:58:10 10° SSW
Cosmos 1745 Rocket 4.1 16:46:49 10° S 16:53:17 87° E 16:59:37 10° N
Helios 1B rocket 3.4 16:49:31 10° NE 16:53:21 49° ESE 16:57:13 10° S
CORIOLIS 4.4 16:48:37 10° NNE 16:54:05 77° ESE 16:59:35 10° SSW
Meteor 1-31 Rocket 4.1 16:52:08 10° NE 16:55:40 41° ESE 16:59:15 10° S
DMSP B5D2-2 4.1 16:50:39 10° SSE 16:56:02 86° WSW 17:01:20 10° NNW
Cosmos 1633 Rocket 3.0 16:55:04 10° NNW 16:59:30 68° WSW 17:04:01 10° S
Cosmos 2285 Rocket 4.1 16:53:20 10° SSW 16:59:38 54° WNW 17:05:50 10° N
Cosmos 1733 4.2 17:00:02 24° WSW 17:00:02 24° WSW 17:03:02 10° SSW
Cosmos 1356 Rocket 3.4 16:56:24 10° SSW 17:00:43 86° W 17:04:54 10° N
CZ-4C R/B 3.5 16:56:09 19° W 17:00:57 37° SSW 17:06:56 10° SE
USA 238 DEB 4.4 16:54:04 10° NNW 17:01:50 64° NE 17:09:07 10° SE
USA 238 4.4 16:54:11 10° NNW 17:01:58 64° NE 17:09:14 10° SE
Cosmos 1844 Rocket 3.7 17:00:43 20° W 17:03:20 29° SW 17:08:14 10° SSE
Cosmos 1607 4.0 16:59:02 10° SW 17:05:12 82° SE 17:11:25 10° NE
CZ-2C R/B 2.9 17:02:04 10° NNE 17:05:39 68° ESE 17:09:16 10° S
ATLAS CENTAUR R/B 3.1 17:06:24 17° WSW 17:08:14 21° SSW 17:11:36 10° SSE
COSMOS 2406 4.3 17:04:59 10° SSW 17:10:31 47° SE 17:16:01 10° NE
SL-24 DEB 4.2 17:06:23 10° N 17:11:02 88° E 17:15:44 10° S
Cosmos 1140 Rocket 3.6 17:07:02 10° SSW 17:12:05 53° WNW 17:17:05 10° N
SeaSat 1 3.5 17:09:17 10° NNW 17:13:18 25° WNW 17:17:21 10° SW
Cosmos 1805 4.0 17:11:48 10° NW 17:15:11 30° WSW 17:18:37 10° S
Cosmos 1703 Rocket 3.7 17:11:08 10° S 17:15:41 85° E 17:20:07 10° N
Cosmos 1818 3.6 17:12:54 10° SW 17:18:15 64° NW 17:23:34 10° NNE
GENESIS II 4.0 17:17:20 11° NW 17:20:40 62° SW 17:24:14 10° SE
Cosmos 1943 Rocket 4.0 17:17:12 10° N 17:22:17 36° ENE 17:27:22 10° SE
Blok-L 4.2 17:14:54 10° WNW 17:22:25 45° SW 17:24:38 10° SSE
PSLV R/B 4.2 17:19:12 10° NNW 17:22:55 31° W 17:26:40 10° SSW
Cosmos 407 Rocket 3.5 17:17:59 10° SSW 17:23:08 61° WNW 17:28:16 10° N
S3M 4.0 17:16:46 10° NNW 17:23:10 78° W 17:29:42 10° S
Cosmos 1470 3.6 17:19:32 10° N 17:23:14 53° E 17:27:00 10° SSE
SL-16 R/B 3.7 17:19:11 10° S 17:23:51 23° SW 17:28:17 11° W
CENTAUR R/B 3.3 17:18:38 13° W 17:24:53 40° SSW 17:30:49 10° SE
Cosmos 1862 Rocket 4.5 17:22:21 10° SSW 17:26:14 28° W 17:30:05 10° NNW
Meteor 1-4 Rocket 3.4 17:26:01 10° S 17:29:10 47° ESE 17:32:18 10° NNE
SMAP 3.2 17:25:34 10° N 17:30:09 52° W 17:34:48 10° SSW
GEOS 3 Rocket 3.7 17:26:46 10° SE 17:31:59 70° SW 17:37:15 10° NW
AQUARIUS 4.2 17:29:33 10° N 17:34:00 61° WNW 17:38:32 10° SSW
SL-23 DEB 4.0 17:31:48 13° W 17:34:49 66° S 17:39:38 10° E
ASTEX 1 3.4 17:31:02 10° S 17:36:02 87° W 17:40:58 10° N
USA 234 3.6 17:31:00 10° ENE 17:37:34 70° SSE 17:44:09 10° WSW
SL-4 R/B 4.4 17:35:29 10° N 17:38:41 22° NE 17:42:02 10° E
Cosmos 1833 Rocket 3.3 17:35:40 10° SW 17:40:47 35° WNW 17:45:51 10° N
Okean 1-7 3.5 17:36:59 10° SSW 17:41:03 37° W 17:45:03 10° NNW
CZ-4 R/B 4.3 17:39:40 10° E 17:42:06 16° ESE 17:44:36 10° SSE
Cosmos 1869 Rocket 4.0 17:38:31 10° N 17:42:50 69° E 17:47:16 10° SSE
Cosmos 1470 Rocket 4.1 17:40:53 10° NW 17:45:08 39° WSW 17:49:25 10° S
Cosmos 1315 Rocket 2.8 17:42:02 10° SSW 17:46:10 82° W 17:50:12 10° N
Cosmos 2315 Rocket 4.0 17:41:56 10° NNW 17:48:14 76° WSW 17:54:40 10° S
IGS 5A 4.0 17:45:05 10° NNE 17:49:10 64° ESE 17:53:19 10° S
Cosmos 724 4.5 17:43:31 10° SW 17:49:44 72° NW 17:55:55 10° NNE
Cosmos 1400 Rocket 4.3 17:50:28 10° SW 17:52:44 15° W 17:54:58 10° WNW
Cosmos 1766 3.9 17:50:49 10° NW 17:54:15 32° WSW 17:57:45 10° S
SJ 16-02 4.0 17:51:45 10° SSE 17:54:24 15° SE 17:57:01 10° E
NOSS 3-2 (C) 4.3 17:46:47 10° WNW 17:55:23 58° SW 18:02:41 10° SE
Cosmos 2082 Rocket 2.2 17:49:47 10° SSW 17:55:29 80° WNW 18:01:08 10° NNE
